Location: Erfurt
(50.9688°N, 11.0193°E)
Time: 18:59:17
(UTC+01:00)

ISS - Pass Details

Date: 12 February 2018
Orbit: 402 x 407 km, 51.6° (Epoch: 25 February)

Event Time Altitude Azimuth Distance (km) Brightness Sun altitude
Rises 18:32:03 0° 282° (WNW) 2,321 1.5 -10.8°
Reaches altitude 10° 18:34:35 10° 262° (W) 1,458 0.6 -11.2°
Maximum altitude 18:36:49 17° 218° (SW) 1,097 -1.0 -11.5°
Drops below altitude 10° 18:39:03 10° 175° (S) 1,453 -1.0 -11.9°
Sets 18:41:35 0° 154° (SSE) 2,308 -0.2 -12.3°
